User: anonymous   Login
Location: Knowlton
(51.2333°N, 1.2667°E)
Time: 02:02:57
(UTC+00:00)
Language:

Cosmos 2263 Rocket - Orbit

View from above orbital plane
View from above orbital plane
View from above satellite
View from above satellite

Ground track
Ground track

The orbit data is extracted from the following two-line orbital elements,

1 22803U 93059B   21174.55268204 -.00000220  00000-0 -85680-4 0  9995
2 22803  70.9911  37.2002 0019036 306.4552  53.4817 14.16838241435864
Epoch (UTC): 23 June 2021 13:15:51
Eccentricity: 0.0019036
inclination: 70.9911°
perigee height: 822 km
apogee height: 850 km
right ascension of ascending node: 37.2002°
argument of perigee: 306.4552°
revolutions per day: 14.16838241
mean anomaly at epoch: 53.4817°
orbit number at epoch: 43586

The dashed part of the orbit path shows where the satellite is in the earth's shadow,  

DLR